Choke Canyon Reservoir Weather Center

Moon Phase Calendar



Choke Canyon Reservoir Water Level
Online Cameras

 


      

Current Conditions in Three Rivers
10/20/2021 8:11:55 AM

66°F
Feels Like 67
Clouds
Humidity
87%
Pressure
30.03"
Wind
6 mph (SE)
Dew Point
62°F
UV Index
0/10 (Low)
Visibility
6 mi

Hourly Forecast

Date & Time Wed, Oct 20
8:00 AM
Wed, Oct 20
9:00 AM
Wed, Oct 20
10:00 AM
Wed, Oct 20
11:00 AM
Wed, Oct 20
12:00 PM
Wed, Oct 20
1:00 PM
Wed, Oct 20
2:00 PM
Wed, Oct 20
3:00 PM
Wed, Oct 20
4:00 PM
Wed, Oct 20
5:00 PM
Wed, Oct 20
6:00 PM
Wed, Oct 20
7:00 PM
Wed, Oct 20
8:00 PM
Wed, Oct 20
9:00 PM
Wed, Oct 20
10:00 PM
Wed, Oct 20
11:00 PM
Thu, Oct 21
12:00 AM
Thu, Oct 21
1:00 AM
Thu, Oct 21
2:00 AM
Thu, Oct 21
3:00 AM
Thu, Oct 21
4:00 AM
Thu, Oct 21
5:00 AM
Thu, Oct 21
6:00 AM
Thu, Oct 21
7:00 AM
Thu, Oct 21
8:00 AM
Thu, Oct 21
9:00 AM
Thu, Oct 21
10:00 AM
Thu, Oct 21
11:00 AM
Thu, Oct 21
12:00 PM
Thu, Oct 21
1:00 PM
Thu, Oct 21
2:00 PM
Thu, Oct 21
3:00 PM
Thu, Oct 21
4:00 PM
Thu, Oct 21
5:00 PM
Thu, Oct 21
6:00 PM
Thu, Oct 21
7:00 PM
Thu, Oct 21
8:00 PM
Thu, Oct 21
9:00 PM
Thu, Oct 21
10:00 PM
Thu, Oct 21
11:00 PM
Fri, Oct 22
12:00 AM
Fri, Oct 22
1:00 AM
Fri, Oct 22
2:00 AM
Fri, Oct 22
3:00 AM
Fri, Oct 22
4:00 AM
Fri, Oct 22
5:00 AM
Fri, Oct 22
6:00 AM
Fri, Oct 22
7:00 AM
Condition
Clouds

Clouds

Clouds

Clouds

Clouds

Clouds

Clear

Clouds

Clear

Clouds

Clouds

Clouds

Clear

Clear

Clear

Clear

Clear

Clear

Clear

Clear

Clear

Clear

Clouds

Clear

Clear

Clear

Clear

Clear

Clear

Clear

Clear

Clouds

Clouds

Clouds

Clouds

Clouds

Clouds

Clouds

Clouds

Clouds

Clouds

Clouds

Clouds

Clouds

Clouds

Clouds

Clouds

Clouds
Temperature 66°F68°F71°F75°F80°F86°F88°F89°F89°F89°F87°F83°F80°F79°F77°F76°F75°F74°F73°F72°F71°F71°F70°F70°F70°F74°F77°F80°F83°F86°F88°F89°F89°F88°F87°F82°F80°F78°F76°F74°F73°F72°F71°F71°F70°F70°F70°F69°F
Feels Like 67°F68°F71°F76°F82°F88°F90°F90°F91°F90°F89°F84°F82°F79°F78°F76°F75°F75°F74°F73°F72°F72°F71°F71°F71°F75°F78°F82°F85°F86°F88°F88°F88°F87°F86°F82°F80°F78°F76°F75°F74°F73°F72°F71°F71°F71°F71°F70°F
Cloudiness 100%100%98%88%74%59%10%11%10%25%39%38%4%2%4%3%3%4%1%6%6%8%12%10%6%5%3%3%3%4%3%46%64%73%74%75%63%34%24%18%16%19%47%31%29%26%33%38%
Visibility 6 mi6 mi6 mi6 mi6 mi6 mi6 mi6 mi6 mi6 mi6 mi6 mi6 mi6 mi6 mi6 mi6 mi6 mi6 mi6 mi6 mi6 mi6 mi6 mi6 mi6 mi6 mi6 mi6 mi6 mi6 mi6 mi6 mi6 mi6 mi6 mi6 mi6 mi6 mi6 mi6 mi6 mi6 mi6 mi6 mi6 mi6 mi6 mi
Precipitation 0%0%0%0%0%0%0%0%0%0%0%0%0%0%0%0%0%0%0%0%0%0%0%0%0%0%0%0%0%0%0%0%0%0%0%0%0%0%0%0%0%0%0%0%0%0%0%0%
Humidity 87%85%80%73%63%52%48%45%43%44%47%55%59%61%69%74%76%78%81%84%87%89%91%92%92%82%72%61%52%45%41%38%36%36%40%48%54%59%64%67%70%74%79%83%87%91%93%94%
Dew Point 62°F63°F64°F66°F66°F66°F65°F65°F64°F64°F64°F65°F64°F64°F66°F67°F67°F66°F67°F67°F67°F67°F67°F67°F67°F68°F67°F66°F64°F62°F61°F60°F59°F58°F59°F60°F61°F62°F62°F63°F63°F63°F64°F65°F66°F67°F67°F68°F
Pressure 30.03"30.03"30.03"30.06"30.06"30.03"30"29.94"29.94"29.91"29.94"29.94"29.97"30"30"30.03"30.03"30"30.03"30.03"30"30"30.03"30.03"30.06"30.09"30.09"30.09"30.06"30.06"30.03"30"29.97"29.97"29.97"29.97"29.97"30"30"30.03"30.03"30"30"30"29.97"29.97"29.97"29.97"
Wind Speed 6 mph7.2 mph8.3 mph7.4 mph7.1 mph7.1 mph7.2 mph7.4 mph8 mph8.2 mph8.6 mph8.7 mph9.7 mph9.9 mph10.3 mph8.6 mph8.6 mph8.3 mph7.2 mph6.2 mph5.9 mph5.7 mph4.2 mph4.7 mph4.4 mph4.1 mph5 mph5.1 mph5.8 mph6.5 mph6.7 mph7.3 mph7.8 mph8.3 mph9 mph8.3 mph8.8 mph10 mph10.2 mph8 mph7.5 mph7.4 mph7 mph7.3 mph5.9 mph3.9 mph4.2 mph4.4 mph
Wind
Direction
126°
SE
138°
SE
152°
SSE
156°
SSE
156°
SSE
148°
SSE
142°
SE
137°
SE
130°
SE
119°
ESE
108°
ESE
96°
E
98°
E
119°
ESE
136°
SE
139°
SE
140°
SE
146°
SE
150°
SSE
149°
SSE
140°
SE
137°
SE
140°
SE
116°
ESE
119°
ESE
117°
ESE
111°
ESE
113°
ESE
111°
ESE
114°
ESE
109°
ESE
105°
ESE
102°
ESE
100°
E
103°
ESE
110°
ESE
119°
ESE
130°
SE
128°
SE
133°
SE
122°
ESE
123°
ESE
124°
SE
129°
SE
133°
SE
139°
SE
125°
SE
112°
ESE

Daily Forecast

Date High Low Precip. Humidity
Today
Oct 20

Clouds
89 °F
66 °F
0%
52%
Thursday
Oct 21

Clear
89 °F
70 °F
0%
45%
Friday
Oct 22

Clouds
89 °F
69 °F
0%
52%
Saturday
Oct 23

Clouds
88 °F
72 °F
0%
47%
Sunday
Oct 24

Clouds
87 °F
73 °F
12%
52%
Monday
Oct 25

Clouds
88 °F
75 °F
0%
55%
Tuesday
Oct 26

Rain
87 °F
76 °F
100%
61%
Wednesday
Oct 27

Rain
86 °F
73 °F
93%
28%
Thursday
Oct 28

Clear
81 °F
64 °F
0%
22%
Friday
Oct 29

Clear
81 °F
60 °F
0%
24%
Saturday
Oct 30

Clear
82 °F
61 °F
0%
29%
Sunday
Oct 31

Clear
81 °F
63 °F
0%
43%
Monday
Nov 1

Clear
70 °F
55 °F
0%
21%
Tuesday
Nov 2

Clouds
77 °F
53 °F
0%
45%
Wednesday
Nov 3

Clouds
84 °F
62 °F
0%
48%
Thursday
Nov 4

Rain
83 °F
67 °F
55%
49%

Temperature 8-14 Day Outlook



Precipitation 8-14 Day Outlook




Quick Links
Choke Canyon Reservoir News
Choke Canyon Reservoir Photos
Choke Canyon Reservoir Videos




About Us
Contact Us
Site Map
Search Site
Advertise With Us
   
ChokeCanyon.USLakes.info
THE CHOKE CANYON RESERVOIR WEBSITE

Copyright 2021, Lakes Online
Privacy    |    Legal